Погода в Пскенте

Узбекистан     40°53′53″N   69°21′04″E
темп.,
°C
ветер,
м/с
пор.,
м/с
влажн.,
%
обл.,
%
осадки,
мм/ч
давл.,
гПа
погр.,
м
19 сентября, вс
вс1923:00+23с22190 0.0 100811
02:00+22всв11200 0.0 100711
05:00+19ю33270 0.0 100921
08:00+22ююз33230 0.0 1012176
11:00+30зсз23150 0.0 1011972
14:00+34сз54120 0.0 10101906
17:00+32ссз66110 0.0 10111453
20:00+22ссз510140 0.0 1013144
20 сентября, пн
пн2023:00+19с33180 0.0 101426
02:00+17юз22250 0.0 101411
05:00+13ю22360 0.0 101515
08:00+18ююз23260 0.0 1016201
11:00+25юз32160 0.0 1014765
14:00+30сз33120 0.0 10111340
17:00+30ссз33110 0.0 10101493
20:00+21ссз33220 0.0 101125
21 сентября, вт
вт2123:00+19св22240 0.0 101211
02:00+17ю22270 0.0 101211
05:00+14ю33330 0.0 101326
08:00+18ю23230 0.0 1013177
11:00+26зюз33150 0.0 1012803
14:00+30зсз33120 0.0 10101649
17:00+30сз54130 0.0 10101788
20:00+20ссз46180 0.0 101178
22 сентября, ср
ср2223:00+18ссв22210 0.0 101211
02:00+16ю11240 0.0 101211
05:00+13ю23280 0.0 101316
08:00+18ююз21211 0.0 1014157
11:00+25зсз22110 0.0 1013844
14:00+30сз4390 0.0 10111686
17:00+29сз4490 0.0 10111752
20:00+20ссз45140 0.0 101357
23 сентября, чт
чт2323:00+17св22190 0.0 101311
02:00+15св11210 0.0 101311
05:00+14ююв11230 0.0 101310
08:00+18ююз11170 0.0 1014118
11:00+26зсз22100 0.0 1013897
14:00+31ссз43841 0.0 10111504
17:00+30ссз4486 0.0 10111437
20:00+21с33155 0.0 101216